M I D A S
Marine Information and Data Acquisition System
Tripno 2167 of the Zeeleeuw from 2011-08-19 07:27:30 to 2011-08-19 15:53:17
Back to CruiseResearch ActivitiesStationsMapUnderway DataData graphs

EquipmentUnitsComment
TimeDGPSUTC
LatitudeDGPSDM.mWGS84
LongitudeDGPSDM.mWGS84
TemperatureSBE03/SBE38deg celciusITS90
ConductivitySBE21S/mITS90
SalinitySBE21 Practical Salinity Units
ChlorophylAChelsea fluorimeterg/lCalibrated in Aceton
Missing or incorrect values are displayed as -999
Sea surface data collected by the RV Zeeleeuw from 2011-08-19 07:08:29 to 2011-08-19 15:54:02
Time Latitude Longitude Temperature Conductivity Salinity ChlorophylA
2011-08-19 07:09:32 51°13.636 2°56.019 22.1964 0.013101 0.070901 -3.020363
2011-08-19 07:10:31 51°13.634 2°56.018 22.1923 0.013101 0.070902 -3.020363
2011-08-19 07:11:34 51°13.647 2°55.974 22.2034 0.012998 0.07038 -3.020363
2011-08-19 07:12:35 51°13.679 2°55.868 22.2094 0.012998 0.07038 -3.020363
2011-08-19 07:13:35 51°13.701 2°55.761 22.2199 0.012998 0.070377 -3.020363
2011-08-19 07:14:34 51°13.707 2°55.721 22.2488 0.012998 0.070374 -3.020363
2011-08-19 07:15:34 51°13.719 2°55.746 22.2762 0.012998 0.07037 -3.020363
2011-08-19 07:16:35 51°13.729 2°55.757 22.205 0.012998 0.070368 -3.020363
2011-08-19 07:17:35 51°13.717 2°55.746 22.2968 0.012998 0.070367 -3.020363
2011-08-19 07:18:34 51°13.803 2°55.668 22.1962 0.012998 0.070368 -3.020363
2011-08-19 07:19:34 51°13.934 2°55.568 22.2308 0.012998 0.07037 -3.020363
2011-08-19 07:20:33 51°14.069 2°55.466 22.2537 0.012998 0.070371 -3.020363
2011-08-19 07:21:35 51°14.215 2°55.344 22.2373 0.012998 0.070374 -3.020363
2011-08-19 07:22:35 51°14.358 2°55.206 22.2308 0.012998 0.070376 -3.020363
2011-08-19 07:23:34 51°14.5 2°55.059 22.2122 0.012998 0.070376 -3.020363
2011-08-19 07:24:32 51°14.652 2°54.908 22.2079 0.012998 0.070378 -3.020363
2011-08-19 07:25:32 51°14.846 2°54.895 22.2736 0.013101 0.070902 -3.020363
2011-08-19 07:26:32 51°15.028 2°54.992 22.2478 0.013101 0.070906 -3.020363
2011-08-19 07:27:32 51°15.202 2°55.126 22.2314 0.013101 0.070915 -3.020363
2011-08-19 07:28:32 51°15.37 2°55.272 22.2522 0.013101 0.070923 -3.020363
2011-08-19 07:29:32 51°15.492 2°55.506 22.2695 0.013101 0.07093 -3.020363
2011-08-19 07:30:32 51°15.611 2°55.745 22.2912 0.013101 0.070937 -3.020363
2011-08-19 07:31:32 51°15.724 2°55.99 22.3001 0.013101 0.070942 -3.020363
2011-08-19 07:32:32 51°15.845 2°56.223 22.2964 0.013101 0.070948 -3.020363
2011-08-19 07:33:32 51°15.97 2°56.448 22.2824 0.013101 0.070953 -3.020363
2011-08-19 07:34:32 51°16.072 2°56.701 22.2824 0.013101 0.070962 -3.020363
2011-08-19 07:35:32 51°16.165 2°56.959 22.3177 0.013101 0.070971 -3.020363
2011-08-19 07:36:32 51°16.265 2°57.21 22.3222 0.013101 0.070978 -3.020363
2011-08-19 07:37:32 51°16.356 2°57.466 22.3159 0.013101 0.070984 -3.020363
2011-08-19 07:38:32 51°16.454 2°57.716 22.3244 0.013101 0.07099 -3.020363
2011-08-19 07:39:32 51°16.549 2°57.97 22.3544 0.013101 0.070994 -3.020363
2011-08-19 07:40:32 51°16.659 2°58.208 22.3328 0.013101 0.070998 -3.020363
2011-08-19 07:41:32 51°16.753 2°58.464 22.349 0.013101 0.071001 -3.020363
2011-08-19 07:42:32 51°16.866 2°58.701 22.3561 0.013101 0.071004 -3.020363
2011-08-19 07:43:32 51°16.97 2°58.948 22.3683 0.013101 0.071005 -3.020363
2011-08-19 07:44:32 51°17.076 2°59.194 22.3795 0.013101 0.071019 -3.020363
2011-08-19 07:45:32 51°17.177 2°59.447 22.378 0.013101 0.071006 -3.020363
2011-08-19 07:46:32 51°17.284 2°59.691 22.3987 0.013101 0.071009 -3.020363
2011-08-19 07:47:32 51°17.393 2°59.932 22.4167 0.013101 0.07101 -3.020363
2011-08-19 07:48:32 51°17.489 3°0.187 22.4134 0.013101 0.07102 -3.020363
2011-08-19 07:49:32 51°17.58 3°0.447 22.423 0.013101 0.071007 -3.020363
2011-08-19 07:50:32 51°17.677 3°0.7 22.4367 0.013101 0.071011 -3.020363
2011-08-19 07:51:32 51°17.794 3°0.931 22.4344 0.013101 0.071013 -3.020363
2011-08-19 07:52:32 51°17.895 3°1.179 22.4606 0.013101 0.071015 -3.020363
2011-08-19 07:53:32 51°17.998 3°1.423 22.4596 0.013101 0.071017 -3.020363
2011-08-19 07:54:32 51°18.098 3°1.672 22.4704 0.013101 0.071016 -3.020363
2011-08-19 07:55:32 51°18.204 3°1.914 22.4795 0.013101 0.071015 -3.020363
2011-08-19 07:56:32 51°18.315 3°2.151 22.5067 0.013101 0.071013 -3.020363
2011-08-19 07:57:32 51°18.421 3°2.392 22.4973 0.013101 0.071011 -3.020363
2011-08-19 07:58:32 51°18.493 3°2.663 22.4991 0.013101 0.07101 -3.020363
2011-08-19 07:59:32 51°18.575 3°2.925 22.5363 0.013101 0.071011 -3.020363
2011-08-19 08:00:32 51°18.666 3°3.177 22.5374 0.013101 0.071013 -3.020363
2011-08-19 08:01:32 51°18.762 3°3.426 22.5191 0.013101 0.071015 -3.020363
2011-08-19 08:02:32 51°18.841 3°3.689 22.5234 0.012998 0.070495 -3.020363
2011-08-19 08:03:32 51°18.938 3°3.936 22.5613 0.012998 0.070498 -3.020363
2011-08-19 08:04:32 51°19.061 3°4.145 22.5648 0.012998 0.070502 -3.020363
2011-08-19 08:05:32 51°19.179 3°4.365 22.5813 0.012998 0.070505 -3.020363
2011-08-19 08:06:32 51°19.314 3°4.56 22.5842 0.012998 0.070509 -3.020363
2011-08-19 08:07:32 51°19.448 3°4.752 22.5873 0.012998 0.070514 -3.020363
2011-08-19 08:08:32 51°19.58 3°4.948 22.5697 0.012998 0.070518 -3.020363
2011-08-19 08:09:33 51°19.695 3°5.173 22.6188 0.012998 0.070522 -3.020363
2011-08-19 08:10:32 51°19.811 3°5.387 22.6137 0.012998 0.070527 -3.020363
2011-08-19 08:11:32 51°19.898 3°5.638 22.6465 0.012998 0.070531 -3.020363
2011-08-19 08:12:32 51°20.003 3°5.871 22.6334 0.012998 0.070537 -3.020363
2011-08-19 08:13:32 51°20.099 3°6.114 22.6436 0.012998 0.070542 -3.020363
2011-08-19 08:14:32 51°20.211 3°6.339 22.6562 0.012998 0.070548 -3.020363
2011-08-19 08:15:32 51°20.323 3°6.564 22.6705 0.012998 0.070552 -3.020363
2011-08-19 08:16:32 51°20.425 3°6.799 22.6871 0.012998 0.070557 -3.020363
2011-08-19 08:17:32 51°20.533 3°7.024 22.682 0.012998 0.070561 -3.020363
2011-08-19 08:18:32 51°20.637 3°7.254 22.6874 0.012998 0.070566 -3.020363
2011-08-19 08:19:32 51°20.741 3°7.484 22.708 0.012998 0.07057 -3.020363
2011-08-19 08:20:32 51°20.885 3°7.658 22.7191 0.012998 0.070575 -3.020363
2011-08-19 08:21:32 51°21.055 3°7.758 22.7166 0.012998 0.070578 -3.020363
2011-08-19 08:22:32 51°21.235 3°7.825 22.745 0.012998 0.070582 -3.020363
2011-08-19 08:23:32 51°21.395 3°7.886 22.7523 0.012998 0.070587 -3.020363
2011-08-19 08:24:32 51°21.474 3°7.817 22.766 0.012998 0.070594 -3.020363
2011-08-19 08:25:32 51°21.474 3°7.69 22.7574 0.012998 0.070599 -3.020363
2011-08-19 08:26:32 51°21.453 3°7.591 22.7717 0.012998 0.070604 -3.020363
2011-08-19 08:27:32 51°21.432 3°7.493 22.7735 0.012998 0.07061 -3.020363
2011-08-19 08:28:32 51°21.428 3°7.375 22.7764 0.012998 0.070616 -3.020363
2011-08-19 08:29:32 51°21.456 3°7.281 22.8003 0.012998 0.070622 -3.020363
2011-08-19 08:30:32 51°21.501 3°7.257 22.7926 0.012998 0.070628 -3.020363
2011-08-19 08:31:32 51°21.55 3°7.264 22.8246 0.012998 0.070633 -3.020363
2011-08-19 08:32:33 51°21.601 3°7.264 22.8225 0.012998 0.070639 -3.020363
2011-08-19 08:33:32 51°21.654 3°7.261 22.8344 0.012998 0.070644 -3.020363
2011-08-19 08:34:32 51°21.697 3°7.287 22.8376 0.012998 0.070647 -3.020363
2011-08-19 08:35:32 51°21.726 3°7.35 22.8351 0.012998 0.070651 -3.020363
2011-08-19 08:36:32 51°21.745 3°7.426 22.8125 0.012998 0.070657 -3.020363
2011-08-19 08:37:32 51°21.77 3°7.495 22.8257 0.012998 0.070662 -3.020363
2011-08-19 08:38:32 51°21.788 3°7.569 22.836 0.012998 0.070667 -3.020363
2011-08-19 08:39:32 51°21.807 3°7.645 22.8486 0.012998 0.070671 -3.020363
2011-08-19 08:40:32 51°21.828 3°7.719 22.8639 0.012998 0.070676 -3.020363
2011-08-19 08:41:32 51°21.851 3°7.794 22.8806 0.012998 0.070681 -3.020363
2011-08-19 08:42:32 51°21.866 3°7.876 22.8938 0.012998 0.070685 -3.020363
2011-08-19 08:43:32 51°21.896 3°7.94 22.909 0.012998 0.070689 -3.020363
2011-08-19 08:44:32 51°21.94 3°7.987 22.9247 0.012895 0.070168 -3.020363
2011-08-19 08:45:32 51°21.977 3°8.049 22.9442 0.012895 0.070171 -3.020363
2011-08-19 08:46:32 51°22.01 3°8.115 22.9553 0.012895 0.070174 -3.020363
2011-08-19 08:47:32 51°22.036 3°8.187 22.9747 0.012895 0.070176 -3.020363
2011-08-19 08:48:32 51°22.057 3°8.266 22.9946 0.012895 0.070178 -3.020363
2011-08-19 08:49:32 51°22.08 3°8.345 23.02 0.012895 0.070181 -3.020363
2011-08-19 08:50:32 51°22.107 3°8.418 23.0399 0.012895 0.070184 -3.020363
2011-08-19 08:51:32 51°22.14 3°8.483 23.0577 0.012895 0.070188 -3.020363
2011-08-19 08:52:32 51°22.172 3°8.55 23.0719 0.012895 0.07019 -3.020363
2011-08-19 08:53:32 51°22.204 3°8.619 23.0958 0.012895 0.070193 -3.020363
2011-08-19 08:54:32 51°22.235 3°8.689 23.1104 0.012895 0.070195 -3.020363
2011-08-19 08:55:32 51°22.262 3°8.758 23.1395 0.012895 0.070198 -3.020363
2011-08-19 08:56:32 51°22.292 3°8.823 23.1558 0.012895 0.0702 -3.020363
2011-08-19 08:57:32 51°22.326 3°8.883 23.1761 0.012895 0.070202 -3.020363
2011-08-19 08:58:32 51°22.362 3°8.944 23.1888 0.012895 0.070205 -3.020363
2011-08-19 08:59:32 51°22.391 3°9.015 23.215 0.012895 0.070207 -3.020363
2011-08-19 09:00:32 51°22.417 3°9.088 23.2351 0.012895 0.07021 -3.020363
2011-08-19 09:01:32 51°22.443 3°9.16 23.2651 0.012895 0.070213 -3.020363
2011-08-19 09:02:32 51°22.471 3°9.233 23.2887 0.012895 0.070215 -3.020363
2011-08-19 09:03:32 51°22.495 3°9.309 23.3036 0.012895 0.070218 -3.020363
2011-08-19 09:04:32 51°22.488 3°9.394 23.3212 0.012895 0.07022 -3.020363
2011-08-19 09:05:32 51°22.437 3°9.456 23.3391 0.012895 0.070222 -3.020363
2011-08-19 09:06:32 51°22.358 3°9.457 23.3734 0.012895 0.070225 -3.020363
2011-08-19 09:07:32 51°22.28 3°9.394 23.392 0.012895 0.070227 -3.020363
2011-08-19 09:08:32 51°22.233 3°9.322 23.4174 0.012895 0.070227 -3.020363
2011-08-19 09:09:32 51°22.203 3°9.257 23.4321 0.012895 0.070226 -3.020363
2011-08-19 09:10:32 51°22.177 3°9.2 23.4506 0.012895 0.070225 -3.020363
2011-08-19 09:11:32 51°22.155 3°9.147 23.4818 0.012895 0.070224 -3.020363
2011-08-19 09:12:32 51°22.135 3°9.097 23.4983 0.012895 0.070223 -3.020363
2011-08-19 09:13:32 51°22.11 3°9.041 23.5117 0.012895 0.070222 -3.020363
2011-08-19 09:14:32 51°22.065 3°8.957 23.5374 0.012895 0.070222 -3.020363
2011-08-19 09:15:32 51°22.001 3°8.871 23.563 0.012895 0.070221 -3.020363
2011-08-19 09:16:32 51°21.93 3°8.778 23.2008 0.012895 0.070221 -3.020363
2011-08-19 09:17:32 51°21.858 3°8.683 23.3099 0.012895 0.070221 -3.020363
2011-08-19 09:18:32 51°21.785 3°8.588 23.2445 0.012895 0.070221 -3.020363
2011-08-19 09:19:32 51°21.71 3°8.491 23.2409 0.012895 0.070221 -3.020363
2011-08-19 09:20:32 51°21.633 3°8.397 23.2791 0.012895 0.070222 -3.020363
2011-08-19 09:21:32 51°21.556 3°8.309 23.2829 0.012895 0.070223 -3.020363
2011-08-19 09:22:32 51°21.482 3°8.224 23.3411 0.012895 0.070225 -3.020363
2011-08-19 09:23:32 51°21.41 3°8.139 23.3381 0.012895 0.070228 -3.020363
2011-08-19 09:24:32 51°21.339 3°8.053 23.3049 0.012895 0.07023 -3.020363
2011-08-19 09:25:32 51°21.267 3°7.969 23.3069 0.012895 0.070232 -3.020363
2011-08-19 09:26:33 51°21.195 3°7.884 23.3443 0.012895 0.070235 -3.020363
2011-08-19 09:27:32 51°21.128 3°7.855 23.3112 0.012895 0.070237 -3.020363
2011-08-19 09:28:32 51°21.086 3°7.893 23.278 0.012793 0.069714 -3.020363
2011-08-19 09:29:32 51°21.093 3°7.949 23.2975 0.012793 0.069714 -3.020363
2011-08-19 09:30:32 51°21.143 3°7.998 23.3427 0.012793 0.069714 -3.020363
2011-08-19 09:31:32 51°21.21 3°8.06 23.3605 0.012793 0.069713 -3.020363
2011-08-19 09:32:32 51°21.271 3°8.12 23.4194 0.012793 0.069713 -3.020363
2011-08-19 09:33:33 51°21.327 3°8.178 23.4018 0.012793 0.069712 -3.020363
2011-08-19 09:34:32 51°21.381 3°8.229 23.389 0.012793 0.069713 -3.020363
2011-08-19 09:35:32 51°21.436 3°8.278 23.3989 0.012793 0.069713 -3.020363
2011-08-19 09:36:32 51°21.49 3°8.325 23.3953 0.012793 0.069714 -3.020363
2011-08-19 09:37:32 51°21.545 3°8.375 23.4243 0.012793 0.069714 -3.020363
2011-08-19 09:38:32 51°21.598 3°8.425 23.4195 0.012793 0.069714 -3.020363
2011-08-19 09:39:32 51°21.649 3°8.474 23.4124 0.012793 0.069715 -3.020363
2011-08-19 09:40:32 51°21.704 3°8.513 23.4286 0.012793 0.069715 -3.020363
2011-08-19 09:41:32 51°21.76 3°8.552 23.4345 0.012793 0.069716 -3.020363
2011-08-19 09:42:32 51°21.815 3°8.594 23.4782 0.012793 0.069718 -3.020363
2011-08-19 09:43:32 51°21.869 3°8.641 23.4648 0.012793 0.06972 -3.020363
2011-08-19 09:44:32 51°21.922 3°8.69 23.4712 0.012793 0.069721 -3.020363
2011-08-19 09:45:32 51°21.978 3°8.735 23.475 0.012793 0.069722 -3.020363
2011-08-19 09:46:32 51°22.033 3°8.776 23.5348 0.012793 0.069723 -3.020363
2011-08-19 09:47:32 51°22.042 3°8.855 23.5222 0.012793 0.069724 -3.020363
2011-08-19 09:48:32 51°21.989 3°8.918 23.5558 0.012793 0.069725 -3.020363
2011-08-19 09:49:32 51°21.866 3°8.856 23.5479 0.012793 0.069725 -3.020363
2011-08-19 09:50:32 51°21.832 3°8.608 23.5644 0.012793 0.069724 -3.020363
2011-08-19 09:51:32 51°21.945 3°8.471 23.5357 0.012793 0.069726 -3.020363
2011-08-19 09:52:32 51°22.086 3°8.367 23.5391 0.012793 0.06973 -3.020363
2011-08-19 09:53:32 51°22.231 3°8.268 23.5586 0.012793 0.069732 -3.020363
2011-08-19 09:54:32 51°22.385 3°8.172 23.564 0.012793 0.069732 -3.020363
2011-08-19 09:55:32 51°22.541 3°8.086 23.5676 0.012793 0.069732 -3.020363
2011-08-19 09:56:32 51°22.696 3°7.99 23.5856 0.012793 0.069733 -3.020363
2011-08-19 09:57:32 51°22.847 3°7.869 23.6033 0.012793 0.069732 -3.020363
2011-08-19 09:58:33 51°22.996 3°7.731 23.5935 0.012793 0.069733 -3.020363
2011-08-19 09:59:32 51°23.137 3°7.627 23.5868 0.012793 0.069734 -3.020363
2011-08-19 10:00:33 51°23.19 3°7.506 23.6072 0.012793 0.069735 -3.020363
2011-08-19 10:01:33 51°23.196 3°7.38 23.6157 0.012793 0.069735 -3.020363
2011-08-19 10:02:32 51°23.197 3°7.263 23.6298 0.012793 0.069736 -3.020363
2011-08-19 10:03:32 51°23.199 3°7.158 23.6445 0.012793 0.069738 -3.020363
2011-08-19 10:04:32 51°23.202 3°7.06 23.6412 0.012793 0.069739 -3.020363
2011-08-19 10:05:32 51°23.202 3°6.963 23.6504 0.012793 0.069741 -3.020363
2011-08-19 10:06:32 51°23.2 3°6.869 23.6602 0.012793 0.069742 -3.020363
2011-08-19 10:07:33 51°23.201 3°6.774 23.6648 0.012793 0.069743 -3.020363
2011-08-19 10:08:33 51°23.204 3°6.68 23.6732 0.012793 0.069743 -3.020363
2011-08-19 10:09:32 51°23.212 3°6.589 23.6775 0.012793 0.069743 -3.020363
2011-08-19 10:10:32 51°23.226 3°6.501 23.6844 0.012793 0.069744 -3.020363
2011-08-19 10:11:32 51°23.249 3°6.429 23.6898 0.012793 0.069743 -3.020363
2011-08-19 10:12:32 51°23.278 3°6.396 23.6964 0.012793 0.069742 -3.020363
2011-08-19 10:13:32 51°23.297 3°6.402 23.7042 0.012793 0.069741 -3.020363
2011-08-19 10:14:32 51°23.295 3°6.434 23.7092 0.012793 0.069743 -3.020363
2011-08-19 10:15:32 51°23.284 3°6.482 23.7146 0.012793 0.069744 -3.020363
2011-08-19 10:16:33 51°23.295 3°6.551 23.7216 0.012793 0.069745 -3.020363
2011-08-19 10:17:33 51°23.321 3°6.634 23.7282 0.012793 0.069745 -3.020363
2011-08-19 10:18:32 51°23.32 3°6.74 23.7344 0.012793 0.069745 -3.020363
2011-08-19 10:19:32 51°23.308 3°6.856 23.7424 0.012793 0.069746 -3.020363
2011-08-19 10:20:32 51°23.301 3°6.976 23.7479 0.012793 0.069746 -3.020363
2011-08-19 10:21:32 51°23.291 3°7.097 23.7551 0.01269 0.06922 -3.020363
2011-08-19 10:22:32 51°23.286 3°7.215 23.7622 0.01269 0.06922 -3.020363
2011-08-19 10:23:32 51°23.284 3°7.332 23.767 0.01269 0.069219 -3.020363
2011-08-19 10:24:32 51°23.282 3°7.45 23.7747 0.01269 0.069217 -3.020363
2011-08-19 10:25:32 51°23.278 3°7.57 23.7781 0.01269 0.069214 -3.020363
2011-08-19 10:26:32 51°23.272 3°7.691 23.7852 0.01269 0.069211 -3.020363
2011-08-19 10:27:32 51°23.267 3°7.811 23.7896 0.01269 0.069208 -3.020363
2011-08-19 10:28:32 51°23.267 3°7.927 23.8009 0.01269 0.069205 -3.020363
2011-08-19 10:29:32 51°23.265 3°8.043 23.8051 0.01269 0.069203 -3.020363
2011-08-19 10:30:32 51°23.263 3°8.157 23.8136 0.01269 0.069201 -3.020363
2011-08-19 10:31:32 51°23.258 3°8.269 23.8242 0.01269 0.069198 -3.020363
2011-08-19 10:32:32 51°23.294 3°8.298 23.8413 0.01269 0.069197 -3.020363
2011-08-19 10:33:32 51°23.325 3°8.221 23.8371 0.01269 0.069195 -3.020363
2011-08-19 10:34:32 51°23.318 3°8.085 23.84 0.01269 0.069196 -3.020363
2011-08-19 10:35:32 51°23.302 3°7.93 23.8429 0.01269 0.069195 -3.020363
2011-08-19 10:36:33 51°23.293 3°7.771 23.8601 0.01269 0.069195 -3.020363
2011-08-19 10:37:32 51°23.285 3°7.63 23.8587 0.01269 0.069197 -3.020363
2011-08-19 10:38:32 51°23.275 3°7.492 23.8635 0.01269 0.069199 -3.020363
2011-08-19 10:39:32 51°23.263 3°7.357 23.8743 0.01269 0.069201 -3.020363
2011-08-19 10:40:33 51°23.25 3°7.219 23.8719 0.01269 0.069203 -3.020363
2011-08-19 10:41:32 51°23.242 3°7.085 23.8897 0.01269 0.069205 -3.020363
2011-08-19 10:42:32 51°23.235 3°6.947 23.8961 0.01269 0.069206 -3.020363
2011-08-19 10:43:32 51°23.228 3°6.809 23.8927 0.01269 0.069209 -3.020363
2011-08-19 10:44:33 51°23.22 3°6.667 23.9073 0.01269 0.069211 -3.020363
2011-08-19 10:45:32 51°23.209 3°6.531 23.9109 0.01269 0.069214 -3.020363
2011-08-19 10:46:32 51°23.178 3°6.412 23.924 0.01269 0.069215 -3.020363
2011-08-19 10:47:32 51°23.114 3°6.372 23.9375 0.01269 0.06922 -3.020363
2011-08-19 10:48:32 51°23.082 3°6.423 23.9336 0.01269 0.069222 -3.020363
2011-08-19 10:49:32 51°23.094 3°6.526 23.9362 0.01269 0.069223 -3.020363
2011-08-19 10:50:32 51°23.105 3°6.664 23.9376 0.01269 0.069222 -3.020363
2011-08-19 10:51:32 51°23.116 3°6.811 23.9405 0.01269 0.069222 -3.020363
2011-08-19 10:52:33 51°23.13 3°6.955 23.956 0.01269 0.069221 -3.020363
2011-08-19 10:53:32 51°23.142 3°7.085 23.9452 0.01269 0.06922 -3.020363
2011-08-19 10:54:32 51°23.154 3°7.213 23.9642 0.01269 0.06922 -3.020363
2011-08-19 10:55:32 51°23.16 3°7.342 23.9732 0.01269 0.069219 -3.020363
2011-08-19 10:56:32 51°23.168 3°7.471 23.9742 0.01269 0.069219 -3.020363
2011-08-19 10:57:32 51°23.181 3°7.599 23.9941 0.01269 0.069218 -3.020363
2011-08-19 10:58:32 51°23.199 3°7.727 23.982 0.01269 0.069218 -3.020363
2011-08-19 10:59:32 51°23.217 3°7.856 23.9895 0.01269 0.069216 -3.020363
2011-08-19 11:00:32 51°23.23 3°7.987 23.9992 0.01269 0.069216 -3.020363
2011-08-19 11:01:32 51°23.237 3°8.121 24.0011 0.01269 0.069216 -3.020363
2011-08-19 11:02:32 51°23.246 3°8.253 24.0089 0.01269 0.069215 -3.020363
2011-08-19 11:03:32 51°23.208 3°8.346 23.9859 0.01269 0.069213 -3.020363
2011-08-19 11:04:32 51°23.137 3°8.322 24.01 0.01269 0.069212 -3.020363
2011-08-19 11:05:32 51°23.082 3°8.228 24.0102 0.01269 0.06921 -3.020363
2011-08-19 11:06:32 51°23.066 3°8.106 24.023 0.01269 0.069207 -3.020363
2011-08-19 11:07:32 51°23.075 3°7.977 24.0232 0.01269 0.069206 -3.020363
2011-08-19 11:08:33 51°23.083 3°7.841 24.0294 0.01269 0.069205 -3.020363
2011-08-19 11:09:32 51°23.084 3°7.707 24.0398 0.01269 0.069205 -3.020363
2011-08-19 11:10:33 51°23.09 3°7.566 24.0448 0.01269 0.069205 -3.020363
2011-08-19 11:11:32 51°23.097 3°7.427 24.0616 0.01269 0.069205 -3.020363
2011-08-19 11:12:32 51°23.104 3°7.286 24.045 0.01269 0.069205 -3.020363
2011-08-19 11:13:32 51°23.114 3°7.145 24.0681 0.01269 0.069206 -3.020363
2011-08-19 11:14:32 51°23.12 3°7 24.0708 0.01269 0.069207 -3.020363
2011-08-19 11:15:32 51°23.125 3°6.858 24.0739 0.01269 0.069207 -3.020363
2011-08-19 11:16:32 51°23.133 3°6.717 24.0822 0.01269 0.069209 -3.020363
2011-08-19 11:17:33 51°23.142 3°6.575 24.0858 0.01269 0.069211 -3.020363
2011-08-19 11:18:32 51°23.152 3°6.434 24.0801 0.01269 0.069211 -3.020363
2011-08-19 11:19:32 51°23.186 3°6.348 24.0947 0.01269 0.069212 -3.020363
2011-08-19 11:20:32 51°23.21 3°6.371 24.1042 0.01269 0.069212 -3.020363
2011-08-19 11:21:32 51°23.193 3°6.451 24.1115 0.01269 0.069213 -3.020363
2011-08-19 11:22:32 51°23.178 3°6.558 24.1094 0.01269 0.069213 -3.020363
2011-08-19 11:23:33 51°23.163 3°6.676 24.1074 0.01269 0.069211 -3.020363
2011-08-19 11:24:32 51°23.134 3°6.789 24.1003 0.01269 0.069208 -3.020363
2011-08-19 11:25:32 51°23.059 3°6.819 24.087 0.01269 0.069205 -3.020363
2011-08-19 11:26:32 51°23.002 3°6.723 24.1453 0.012587 0.068676 -3.020363
2011-08-19 11:27:32 51°22.987 3°6.579 24.127 0.01269 0.069195 -3.020363
2011-08-19 11:28:32 51°23.025 3°6.444 24.1188 0.01269 0.06919 -3.020363
2011-08-19 11:29:32 51°23.158 3°6.348 24.1443 0.01269 0.069185 -3.020363
2011-08-19 11:30:32 51°23.341 3°6.229 24.1452 0.01269 0.06918 -3.020363
2011-08-19 11:31:32 51°23.528 3°6.11 24.1264 0.012587 0.068651 -3.020363
2011-08-19 11:32:33 51°23.724 3°6.016 24.1605 0.01269 0.069172 -3.020363
2011-08-19 11:33:33 51°23.918 3°5.93 24.164 0.012587 0.068644 -3.020363
2011-08-19 11:34:32 51°24.105 3°5.825 24.1524 0.012587 0.068641 -3.020363
2011-08-19 11:35:32 51°24.297 3°5.732 24.1713 0.012587 0.068638 -3.020363
2011-08-19 11:36:32 51°24.483 3°5.62 24.1576 0.012587 0.068635 -3.020363
2011-08-19 11:37:32 51°24.67 3°5.532 24.1863 0.012587 0.068633 -3.020363
2011-08-19 11:38:32 51°24.857 3°5.445 24.1888 0.012587 0.06863 -3.020363
2011-08-19 11:39:32 51°25.039 3°5.34 24.1656 0.012587 0.068627 -3.020363
2011-08-19 11:40:32 51°25.222 3°5.248 24.1702 0.012587 0.068623 -3.020363
2011-08-19 11:41:32 51°25.4 3°5.139 24.2071 0.012587 0.068621 -3.020363
2011-08-19 11:42:33 51°25.554 3°4.95 24.2036 0.012587 0.068619 -3.020363
2011-08-19 11:43:32 51°25.701 3°4.753 24.1986 0.012587 0.068616 -3.020363
2011-08-19 11:44:32 51°25.877 3°4.643 24.2168 0.012587 0.068613 -3.020363
2011-08-19 11:45:32 51°26.054 3°4.546 24.1963 0.012587 0.068611 -3.020363
2011-08-19 11:46:32 51°26.232 3°4.449 24.2148 0.012587 0.068608 -3.020363
2011-08-19 11:47:32 51°26.405 3°4.331 24.2185 0.012587 0.068606 -3.020363
2011-08-19 11:48:32 51°26.583 3°4.226 24.2261 0.012587 0.068604 -3.020363
2011-08-19 11:49:33 51°26.765 3°4.127 24.2225 0.012587 0.068601 -3.020363
2011-08-19 11:50:32 51°26.942 3°4.03 24.2498 0.012587 0.068599 -3.020363
2011-08-19 11:51:32 51°27.122 3°3.917 24.241 0.012587 0.068596 -3.020363
2011-08-19 11:52:32 51°27.302 3°3.81 24.228 0.012587 0.068595 -3.020363
2011-08-19 11:53:33 51°27.475 3°3.684 24.2426 0.012587 0.068593 -3.020363
2011-08-19 11:54:32 51°27.562 3°3.6 24.2425 0.012587 0.06859 -3.020363
2011-08-19 11:55:33 51°27.597 3°3.626 24.2499 0.012587 0.068586 -3.020363
2011-08-19 11:56:32 51°27.595 3°3.695 24.2776 0.012587 0.068585 -3.020363
2011-08-19 11:57:32 51°27.609 3°3.771 24.283 0.012587 0.068584 -3.020363
2011-08-19 11:58:32 51°27.632 3°3.873 24.2567 0.012587 0.068582 -3.020363
2011-08-19 11:59:32 51°27.657 3°3.987 24.2728 0.012587 0.06858 -3.020363
2011-08-19 12:00:33 51°27.681 3°4.11 24.2902 0.012587 0.068577 -3.020363
2011-08-19 12:01:32 51°27.706 3°4.23 24.2922 0.012587 0.068575 -3.020363
2011-08-19 12:02:32 51°27.735 3°4.348 24.2959 0.012587 0.068573 -3.020363
2011-08-19 12:03:32 51°27.765 3°4.467 24.2873 0.012587 0.068571 -3.020363
2011-08-19 12:04:32 51°27.795 3°4.587 24.2907 0.012587 0.068569 -3.020363
2011-08-19 12:05:32 51°27.823 3°4.71 24.2966 0.012587 0.068566 -3.020363
2011-08-19 12:06:32 51°27.845 3°4.833 24.295 0.012587 0.068562 -3.020363
2011-08-19 12:07:32 51°27.872 3°4.955 24.2986 0.012587 0.068561 -3.020363
2011-08-19 12:08:32 51°27.902 3°5.075 24.3122 0.012587 0.068557 -3.020363
2011-08-19 12:09:32 51°27.932 3°5.194 24.2978 0.012587 0.068553 -3.020363
2011-08-19 12:10:32 51°27.954 3°5.32 24.3302 0.012587 0.068549 -3.020363
2011-08-19 12:11:32 51°27.977 3°5.437 24.3569 0.012587 0.068547 -3.020363
2011-08-19 12:12:32 51°28.018 3°5.427 24.3743 0.012587 0.068542 -3.020363
2011-08-19 12:13:33 51°28.009 3°5.323 24.3258 0.012587 0.068538 -3.020363
2011-08-19 12:14:32 51°27.951 3°5.203 24.3286 0.012587 0.068535 -3.020363
2011-08-19 12:15:33 51°27.901 3°5.053 24.3396 0.012587 0.06853 -3.020363
2011-08-19 12:16:33 51°27.864 3°4.891 24.3514 0.012587 0.068526 -3.020363
2011-08-19 12:17:32 51°27.823 3°4.729 24.3536 0.012587 0.068522 -3.020363
2011-08-19 12:18:32 51°27.784 3°4.563 24.3408 0.012587 0.068516 -3.020363
2011-08-19 12:19:32 51°27.747 3°4.395 24.3671 0.012587 0.068512 -3.020363
2011-08-19 12:20:32 51°27.715 3°4.233 24.3689 0.012587 0.068505 -3.020363
2011-08-19 12:21:32 51°27.679 3°4.088 24.3593 0.012587 0.0685 -3.020363
2011-08-19 12:22:32 51°27.64 3°3.949 24.3705 0.012587 0.068494 -3.020363
2011-08-19 12:23:32 51°27.604 3°3.809 24.3841 0.012587 0.068488 -3.020363
2011-08-19 12:24:32 51°27.569 3°3.672 24.3848 0.012587 0.068482 -3.020363
2011-08-19 12:25:33 51°27.533 3°3.532 24.3819 0.012587 0.068476 -3.020363
2011-08-19 12:26:32 51°27.504 3°3.396 24.396 0.012587 0.068469 -3.020363
2011-08-19 12:27:32 51°27.47 3°3.256 24.3988 0.012587 0.068463 -3.020363
2011-08-19 12:28:32 51°27.432 3°3.119 24.3946 0.012587 0.068457 -3.020363
2011-08-19 12:29:32 51°27.393 3°2.981 24.3885 0.012587 0.06845 -3.020363
2011-08-19 12:30:32 51°27.375 3°2.854 24.3741 0.012587 0.068444 -3.020363
2011-08-19 12:31:32 51°27.401 3°2.808 24.4137 0.012587 0.068438 -3.020363
2011-08-19 12:32:32 51°27.41 3°2.86 24.4101 0.012587 0.068432 -3.020363
2011-08-19 12:33:32 51°27.416 3°2.961 24.3939 0.012587 0.068427 -3.020363
2011-08-19 12:34:32 51°27.438 3°3.074 24.4076 0.012587 0.068422 -3.020363
2011-08-19 12:35:32 51°27.458 3°3.195 24.4245 0.012587 0.068417 -3.020363
2011-08-19 12:36:32 51°27.474 3°3.321 24.402 0.012587 0.068413 -3.020363
2011-08-19 12:37:32 51°27.492 3°3.448 24.4207 0.012587 0.068407 -3.020363
2011-08-19 12:38:32 51°27.51 3°3.578 24.4217 0.012587 0.068403 -3.020363
2011-08-19 12:39:32 51°27.533 3°3.705 24.4377 0.012587 0.068398 -3.020363
2011-08-19 12:40:32 51°27.557 3°3.831 24.4404 0.012587 0.068393 -3.020363
2011-08-19 12:41:33 51°27.579 3°3.96 24.4517 0.012587 0.068387 -3.020363
2011-08-19 12:42:32 51°27.6 3°4.087 24.4519 0.012587 0.068382 -3.020363
2011-08-19 12:43:33 51°27.625 3°4.214 24.4536 0.012587 0.068378 -3.020363
2011-08-19 12:44:32 51°27.653 3°4.335 24.448 0.012587 0.068373 -3.020363
2011-08-19 12:45:33 51°27.685 3°4.455 24.4558 0.012587 0.068369 -3.020363
2011-08-19 12:46:32 51°27.716 3°4.575 24.4496 0.012587 0.068363 -3.020363
2011-08-19 12:47:32 51°27.774 3°4.677 24.5805 0.012587 0.068359 -3.020363
2011-08-19 12:48:32 51°27.835 3°4.511 24.4298 0.012587 0.068354 -3.020363
2011-08-19 12:49:33 51°27.865 3°4.188 24.4681 0.012587 0.06835 -3.020363
2011-08-19 12:50:32 51°27.919 3°3.871 24.4717 0.012587 0.068345 -3.020363
2011-08-19 12:51:32 51°27.965 3°3.543 24.4702 0.012587 0.06834 -3.020363
2011-08-19 12:52:33 51°28.013 3°3.209 24.4819 0.012587 0.068336 -3.020363
2011-08-19 12:53:32 51°28.058 3°2.884 24.4482 0.012587 0.068331 -3.020363
2011-08-19 12:54:33 51°28.118 3°2.556 24.4901 0.012587 0.068328 -3.020363
2011-08-19 12:55:32 51°28.167 3°2.235 24.4456 0.012587 0.068324 -3.020363
2011-08-19 12:56:32 51°28.217 3°1.914 24.5015 0.012587 0.06832 -3.020363
2011-08-19 12:57:32 51°28.265 3°1.589 24.4916 0.012587 0.068316 -3.020363
2011-08-19 12:58:32 51°28.323 3°1.266 24.4923 0.012587 0.068312 -3.020363
2011-08-19 12:59:32 51°28.377 3°0.944 24.5025 0.012587 0.068308 -3.020363
2011-08-19 13:00:32 51°28.422 3°0.616 24.5277 0.012587 0.068303 -3.020363
2011-08-19 13:01:32 51°28.473 3°0.291 24.5034 0.012587 0.068299 -3.020363
2011-08-19 13:02:32 51°28.521 2°59.963 24.4941 0.012587 0.068295 -3.020363
2011-08-19 13:03:32 51°28.576 2°59.637 24.5103 0.012587 0.06829 -3.020363
2011-08-19 13:04:32 51°28.632 2°59.308 24.5193 0.012587 0.068287 -3.020363
2011-08-19 13:05:32 51°28.682 2°58.978 24.5248 0.012587 0.068282 -3.020363
2011-08-19 13:06:32 51°28.742 2°58.651 24.5426 0.012587 0.068279 -3.020363
2011-08-19 13:07:33 51°28.793 2°58.314 24.5301 0.012587 0.068274 -3.020363
2011-08-19 13:08:32 51°28.847 2°57.992 24.5508 0.012587 0.06827 -3.020363
2011-08-19 13:09:32 51°28.896 2°57.66 24.5506 0.012587 0.068266 -3.020363
2011-08-19 13:10:33 51°28.935 2°57.4 24.558 0.012587 0.068261 -3.020363
2011-08-19 13:11:32 51°28.941 2°57.259 24.5854 0.012587 0.068259 -3.020363
2011-08-19 13:12:32 51°28.947 2°57.146 24.5501 0.012587 0.068254 -3.020363
2011-08-19 13:13:32 51°28.961 2°57.056 24.5749 0.012587 0.068249 -3.020363
2011-08-19 13:14:33 51°28.998 2°56.998 24.557 0.012587 0.068243 -3.020363
2011-08-19 13:15:33 51°29.048 2°56.977 24.5732 0.012587 0.068239 -3.020363
2011-08-19 13:16:33 51°29.103 2°57.003 24.5817 0.012587 0.068235 -3.020363
2011-08-19 13:17:33 51°29.146 2°57.069 24.564 0.012587 0.068232 -3.020363
2011-08-19 13:18:32 51°29.184 2°57.144 24.5907 0.012587 0.06823 -3.020363
2011-08-19 13:19:33 51°29.226 2°57.208 24.5831 0.012587 0.068225 -3.020363
2011-08-19 13:20:32 51°29.266 2°57.272 24.5795 0.012587 0.068222 -3.020363
2011-08-19 13:21:32 51°29.303 2°57.346 24.5948 0.012587 0.068219 -3.020363
2011-08-19 13:22:32 51°29.334 2°57.424 24.593 0.012587 0.068216 -3.020363
2011-08-19 13:23:33 51°29.363 2°57.507 24.5985 0.012587 0.068213 -3.020363
2011-08-19 13:24:32 51°29.391 2°57.593 24.5977 0.012587 0.06821 -3.020363
2011-08-19 13:25:32 51°29.413 2°57.682 24.5832 0.012587 0.068207 -3.020363
2011-08-19 13:26:32 51°29.435 2°57.775 24.6097 0.012587 0.068203 -3.020363
2011-08-19 13:27:32 51°29.458 2°57.871 24.6045 0.012587 0.068201 -3.020363
2011-08-19 13:28:32 51°29.484 2°57.96 24.6071 0.012587 0.068197 -3.020363
2011-08-19 13:29:32 51°29.514 2°58.044 24.6187 0.012587 0.068194 -3.020363
2011-08-19 13:30:32 51°29.547 2°58.119 24.6039 0.012587 0.068191 -3.020363
2011-08-19 13:31:32 51°29.581 2°58.203 24.624 0.012587 0.068189 -3.020363
2011-08-19 13:32:32 51°29.615 2°58.286 24.6321 0.012587 0.068185 -3.020363
2011-08-19 13:33:32 51°29.65 2°58.367 24.619 0.012587 0.068182 -3.020363
2011-08-19 13:34:32 51°29.681 2°58.455 24.6185 0.012587 0.068179 -3.020363
2011-08-19 13:35:32 51°29.712 2°58.543 24.622 0.012587 0.068176 -3.020363
2011-08-19 13:36:32 51°29.746 2°58.629 24.6307 0.012587 0.068172 -3.020363
2011-08-19 13:37:32 51°29.779 2°58.719 24.6367 0.012587 0.068169 -3.020363
2011-08-19 13:38:32 51°29.809 2°58.813 24.6419 0.012587 0.068164 -3.020363
2011-08-19 13:39:32 51°29.836 2°58.908 24.6417 0.012587 0.068161 -3.020363
2011-08-19 13:40:32 51°29.869 2°58.996 24.6484 0.012587 0.068157 -3.020363
2011-08-19 13:41:32 51°29.905 2°59.081 24.6477 0.012587 0.068153 -3.020363
2011-08-19 13:42:32 51°29.945 2°59.161 24.6496 0.012587 0.068147 -3.020363
2011-08-19 13:43:32 51°29.988 2°59.235 24.6452 0.012587 0.068143 -3.020363
2011-08-19 13:44:32 51°30.036 2°59.301 24.6671 0.012587 0.068138 -3.020363
2011-08-19 13:45:32 51°30.086 2°59.362 24.656 0.012587 0.068134 -3.020363
2011-08-19 13:46:32 51°30.132 2°59.433 24.642 0.012587 0.06813 -3.020363
2011-08-19 13:47:32 51°30.168 2°59.52 24.6725 0.012587 0.068126 -3.020363
2011-08-19 13:48:33 51°30.192 2°59.619 24.6436 0.012587 0.068124 -3.020363
2011-08-19 13:49:32 51°30.202 2°59.724 24.6682 0.012587 0.068121 -3.020363
2011-08-19 13:50:32 51°30.199 2°59.832 24.649 0.012587 0.068117 -3.020363
2011-08-19 13:51:32 51°30.179 2°59.938 24.6651 0.012587 0.068113 -3.020363
2011-08-19 13:52:32 51°30.143 3°0.034 24.6744 0.012587 0.068107 -3.020363
2011-08-19 13:53:32 51°30.092 3°0.107 24.682 0.012587 0.068099 -3.020363
2011-08-19 13:54:32 51°30.028 3°0.145 24.6677 0.012587 0.06809 -3.020363
2011-08-19 13:55:32 51°29.962 3°0.142 24.6884 0.012587 0.068081 -3.020363
2011-08-19 13:56:32 51°29.92 3°0.13 24.6741 0.012587 0.068072 -3.020363
2011-08-19 13:57:32 51°29.893 3°0.123 24.681 0.012587 0.068064 -3.020363
2011-08-19 13:58:32 51°29.858 3°0.105 24.6955 0.012587 0.068055 -3.020363
2011-08-19 13:59:32 51°29.813 3°0.059 24.6784 0.012587 0.068049 -3.020363
2011-08-19 14:00:32 51°29.772 2°59.991 24.6252 0.012587 0.068044 -3.020363
2011-08-19 14:01:32 51°29.737 2°59.909 24.6333 0.012587 0.068039 -3.020363
2011-08-19 14:02:32 51°29.704 2°59.82 24.643 0.012587 0.068035 -3.020363
2011-08-19 14:03:32 51°29.669 2°59.733 24.6443 0.012587 0.068033 -3.020363
2011-08-19 14:04:32 51°29.632 2°59.646 24.6531 0.012587 0.06803 -3.020363
2011-08-19 14:05:32 51°29.592 2°59.561 24.6574 0.012587 0.068028 -3.020363
2011-08-19 14:06:32 51°29.553 2°59.478 24.6662 0.012587 0.068026 -3.020363
2011-08-19 14:07:32 51°29.516 2°59.395 24.6664 0.012587 0.068026 -3.020363
2011-08-19 14:08:32 51°29.483 2°59.308 24.6739 0.012587 0.068026 -3.020363
2011-08-19 14:09:32 51°29.449 2°59.221 24.6801 0.012587 0.068026 -3.020363
2011-08-19 14:10:32 51°29.411 2°59.129 24.6954 0.012587 0.068027 -3.020363
2011-08-19 14:11:32 51°29.37 2°59.04 24.6981 0.012587 0.068029 -3.020363
2011-08-19 14:12:32 51°29.329 2°58.951 24.7112 0.012587 0.068032 -3.020363
2011-08-19 14:13:32 51°29.292 2°58.861 24.7181 0.012587 0.068036 -3.020363
2011-08-19 14:14:32 51°29.257 2°58.767 24.7291 0.012587 0.06804 -3.020363
2011-08-19 14:15:32 51°29.224 2°58.673 24.7401 0.012587 0.068044 -3.020363
2011-08-19 14:16:32 51°29.186 2°58.583 24.7473 0.012587 0.068047 -3.020363
2011-08-19 14:17:32 51°29.147 2°58.496 24.7581 0.012587 0.068049 -3.020363
2011-08-19 14:18:32 51°29.11 2°58.408 24.7683 0.012587 0.068051 -3.020363
2011-08-19 14:19:32 51°29.078 2°58.316 24.7791 0.012587 0.068053 -3.020363
2011-08-19 14:20:32 51°29.045 2°58.226 24.7864 0.012587 0.068056 -3.020363
2011-08-19 14:21:32 51°29.01 2°58.137 24.8003 0.012587 0.068058 -3.020363
2011-08-19 14:22:32 51°28.926 2°58.026 24.8122 0.012587 0.06806 -3.020363
2011-08-19 14:23:32 51°28.741 2°57.96 24.8208 0.012587 0.068062 -3.020363
2011-08-19 14:24:32 51°28.548 2°57.886 24.835 0.012587 0.068069 -3.020363
2011-08-19 14:25:32 51°28.356 2°57.805 24.8448 0.012587 0.068082 -3.020363
2011-08-19 14:26:32 51°28.165 2°57.72 24.8591 0.012587 0.068097 -3.020363
2011-08-19 14:27:32 51°27.976 2°57.632 24.8713 0.012587 0.068114 -3.020363
2011-08-19 14:28:32 51°27.788 2°57.535 24.8835 0.012587 0.068133 -3.020363
2011-08-19 14:29:32 51°27.601 2°57.438 24.8953 0.012587 0.068153 -3.020363
2011-08-19 14:30:32 51°27.411 2°57.348 24.9077 0.012587 0.068173 -3.020363
2011-08-19 14:31:32 51°27.225 2°57.248 24.9203 0.012587 0.068194 -3.020363
2011-08-19 14:32:32 51°27.035 2°57.155 24.9312 0.012587 0.068217 -3.020363
2011-08-19 14:33:32 51°26.844 2°57.072 24.9437 0.012587 0.068239 -3.020363
2011-08-19 14:34:32 51°26.654 2°56.988 24.9582 0.012587 0.068259 -3.020363
2011-08-19 14:35:32 51°26.465 2°56.891 24.9665 0.012587 0.068281 -3.020363
2011-08-19 14:36:32 51°26.272 2°56.813 24.9864 0.012587 0.068301 -3.020363
2011-08-19 14:37:32 51°26.081 2°56.725 24.9965 0.012587 0.06832 -3.020363
2011-08-19 14:38:32 51°25.888 2°56.648 25.0109 0.012587 0.06834 -3.020363
2011-08-19 14:39:32 51°25.689 2°56.598 25.0204 0.012587 0.068359 -3.020363
2011-08-19 14:40:32 51°25.492 2°56.542 25.033 0.012587 0.068379 -3.020363
2011-08-19 14:41:32 51°25.295 2°56.497 24.6933 0.012587 0.068401 -3.020363
2011-08-19 14:42:32 51°25.098 2°56.462 24.718 0.012587 0.06842 -3.020363
2011-08-19 14:43:32 51°24.903 2°56.409 24.8376 0.012587 0.06844 -3.020363
2011-08-19 14:44:32 51°24.71 2°56.365 24.7109 0.012587 0.068459 -3.020363
2011-08-19 14:45:32 51°24.523 2°56.325 24.7839 0.012587 0.06848 -3.020363
2011-08-19 14:46:32 51°24.336 2°56.29 24.8488 0.012587 0.068497 -3.020363
2011-08-19 14:47:32 51°24.145 2°56.31 24.7661 0.012587 0.068514 -3.020363
2011-08-19 14:48:32 51°23.951 2°56.329 24.8272 0.012587 0.068535 -3.020363
2011-08-19 14:49:32 51°23.763 2°56.276 24.8647 0.012587 0.068543 -3.020363
2011-08-19 14:50:32 51°23.585 2°56.176 24.7415 0.012587 0.068556 -3.020363
2011-08-19 14:51:32 51°23.41 2°56.066 24.7794 0.012587 0.068571 -3.020363
2011-08-19 14:52:32 51°23.231 2°55.955 24.845 0.012587 0.068583 -3.020363
2011-08-19 14:53:32 51°23.047 2°55.858 24.7799 0.012587 0.068588 -3.020363
2011-08-19 14:54:33 51°22.86 2°55.766 24.8428 0.012587 0.06859 -3.020363
2011-08-19 14:55:32 51°22.677 2°55.689 24.8163 0.012587 0.06859 -3.020363
2011-08-19 14:56:32 51°22.495 2°55.6 24.8993 0.012587 0.068586 -3.020363
2011-08-19 14:57:32 51°22.314 2°55.506 24.8034 0.012587 0.068583 -3.020363
2011-08-19 14:58:32 51°22.131 2°55.416 24.8194 0.012484 0.068054 -3.020363
2011-08-19 14:59:32 51°21.949 2°55.33 24.8463 0.012484 0.068048 -3.020363
2011-08-19 15:00:33 51°21.769 2°55.231 24.8238 0.012484 0.068041 -3.020363
2011-08-19 15:01:32 51°21.594 2°55.14 24.8361 0.012484 0.068034 -3.020363
2011-08-19 15:02:32 51°21.413 2°55.054 24.835 0.012484 0.068026 -3.020363
2011-08-19 15:03:32 51°21.233 2°54.972 24.8589 0.012484 0.068018 -3.020363
2011-08-19 15:04:32 51°21.054 2°54.887 24.8397 0.012484 0.06801 -3.020363
2011-08-19 15:05:32 51°20.874 2°54.803 24.8122 0.012484 0.068001 -3.020363
2011-08-19 15:06:32 51°20.693 2°54.731 24.8521 0.012484 0.067993 -3.020363
2011-08-19 15:07:33 51°20.507 2°54.653 24.8568 0.012484 0.067984 -3.020363
2011-08-19 15:08:32 51°20.322 2°54.599 24.9327 0.012484 0.067976 -3.020363
2011-08-19 15:09:33 51°20.132 2°54.54 24.8798 0.012484 0.067969 -3.020363
2011-08-19 15:10:32 51°19.951 2°54.471 24.9154 0.012484 0.06796 -3.020363
2011-08-19 15:11:32 51°19.767 2°54.405 24.9042 0.012484 0.067952 -3.020363
2011-08-19 15:12:32 51°19.581 2°54.343 24.8901 0.012587 0.068467 -3.020363
2011-08-19 15:13:32 51°19.394 2°54.285 24.9318 0.012587 0.068458 -3.020363
2011-08-19 15:14:32 51°19.208 2°54.219 24.9372 0.012587 0.06845 -3.020363
2011-08-19 15:15:32 51°19.02 2°54.169 24.9221 0.012587 0.068443 -3.020363
2011-08-19 15:16:32 51°18.835 2°54.107 24.9256 0.012587 0.068429 -3.020363
2011-08-19 15:17:32 51°18.65 2°54.039 24.9134 0.012587 0.068427 -3.020363
2011-08-19 15:18:32 51°18.466 2°53.979 24.9076 0.012587 0.068421 -3.020363
2011-08-19 15:19:33 51°18.278 2°53.923 24.9149 0.012587 0.068414 -3.020363
2011-08-19 15:20:32 51°18.098 2°53.855 24.9073 0.012587 0.068406 -3.020363
2011-08-19 15:21:32 51°17.915 2°53.792 24.9055 0.012587 0.0684 -3.020363
2011-08-19 15:22:33 51°17.73 2°53.727 24.9206 0.012587 0.068393 -3.020363
2011-08-19 15:23:32 51°17.55 2°53.675 24.952 0.012587 0.068381 -3.020363
2011-08-19 15:24:32 51°17.369 2°53.606 24.913 0.012587 0.068379 -3.020363
2011-08-19 15:25:32 51°17.188 2°53.542 24.92 0.012587 0.068372 -3.020363
2011-08-19 15:26:32 51°17.003 2°53.508 24.9433 0.012587 0.068364 -3.020363
2011-08-19 15:27:32 51°16.813 2°53.5 24.9363 0.012587 0.068357 -3.020363
2011-08-19 15:28:33 51°16.619 2°53.499 24.9681 0.012587 0.068349 -3.020363
2011-08-19 15:29:33 51°16.427 2°53.527 24.9399 0.012587 0.06834 -3.020363
2011-08-19 15:30:32 51°16.236 2°53.583 24.9536 0.012587 0.068332 -3.020363
2011-08-19 15:31:32 51°16.044 2°53.661 24.9538 0.012587 0.068324 -3.020363
2011-08-19 15:32:32 51°15.853 2°53.759 24.9578 0.012587 0.068316 -3.020363
2011-08-19 15:33:32 51°15.665 2°53.879 24.9485 0.012587 0.068307 -3.020363
2011-08-19 15:34:32 51°15.483 2°54.026 24.9582 0.012587 0.068299 -3.020363
2011-08-19 15:35:32 51°15.303 2°54.186 24.9776 0.012587 0.068289 -3.020363
2011-08-19 15:36:32 51°15.125 2°54.342 24.971 0.012587 0.068282 -3.020363
2011-08-19 15:37:32 51°14.957 2°54.536 24.9726 0.012587 0.068274 -3.020363
2011-08-19 15:38:32 51°14.801 2°54.761 24.9843 0.012587 0.068267 -3.020363
2011-08-19 15:39:33 51°14.64 2°54.985 24.9922 0.012587 0.068259 -3.020363
2011-08-19 15:40:33 51°14.46 2°55.134 24.9852 0.012587 0.06825 -3.020363
2011-08-19 15:41:33 51°14.289 2°55.283 24.987 0.012587 0.068243 -3.020363
2011-08-19 15:42:32 51°14.136 2°55.408 24.9906 0.012587 0.068235 -3.020363
2011-08-19 15:43:33 51°14.011 2°55.501 24.9897 0.012587 0.068227 -3.020363
2011-08-19 15:44:33 51°13.917 2°55.574 24.9933 0.012587 0.06822 -3.020363
2011-08-19 15:45:33 51°13.828 2°55.641 24.9981 0.012587 0.06821 -3.020363
2011-08-19 15:46:33 51°13.756 2°55.713 24.9985 0.012587 0.068203 -3.020363
2011-08-19 15:47:32 51°13.703 2°55.806 25.0018 0.012587 0.068195 -3.020363
2011-08-19 15:48:33 51°13.66 2°55.9 25.0071 0.012587 0.068189 -3.020363
2011-08-19 15:49:33 51°13.639 2°55.984 25.0125 0.012587 0.068182 -3.020363
2011-08-19 15:50:32 51°13.636 2°56.015 25.0146 0.01269 0.068694 -3.020363
2011-08-19 15:51:32 51°13.636 2°56.018 25.0203 0.01269 0.068687 -3.020363
2011-08-19 15:52:33 51°13.637 2°56.019 25.0244 0.01269 0.068679 -3.020363
2011-08-19 15:53:32 51°13.638 2°56.019 25.0273 0.01269 0.068671 -3.020363